This demonstration page uses our WeatherBlox Daily Observations layout. Learn more.

Hourly Observations for April 12, 2019

Temp ( °F °C ) Dew Point ( °F °C ) Humidity (%) Winds ( mph kmh ) Pressure ( in mb ) Visibility ( mi km ) Precip ( " mm )
12:15 am 00:15 Clear 26 -3.5 20 -6.5 80 80 WNW 18 30 29.81 1009 10 16.0934 0 0
12:35 am 00:35 Clear 26 -3.5 20 -6.5 80 80 WNW 21 33 29.81 1009 10 16.0934 0 0
12:55 am 00:55 Clear 26 -3.5 20 -6.5 80 80 WNW 18 30 29.81 1009 10 16.0934 0 0
1:15 am 01:15 Clear 26 -3.5 20 -6.5 80 80 WNW 18 30 29.82 1010 10 16.0934 0 0
1:35 am 01:35 Clear 26 -3.3 20 -6.6 78 78 WNW 18 30 29.82 1010 10 16.0934 0 0
1:55 am 01:55 Clear 26 -3.4 20 -6.5 79 79 WNW 20 31 29.82 1010 10 16.0934 0 0
2:15 am 02:15 Clear 26 -3.2 20 -6.4 79 79 WNW 20 31 29.81 1010 10 16.0934 0 0
2:35 am 02:35 Clear 26 -3.3 20 -6.5 79 79 WNW 15 24 29.82 1010 10 16.0934 0 0
2:55 am 02:55 Clear 26 -3.5 20 -6.5 80 80 WNW 16 26 29.82 1010 10 16.0934 0 0
3:15 am 03:15 Clear 26 -3.6 20 -6.6 80 80 WNW 14 22 29.82 1010 10 16.0934 0 0
3:35 am 03:35 Clear 25 -4 20 -6.7 82 82 W 15 24 29.82 1010 10 16.0934 0 0
3:55 am 03:55 Clear 25 -3.8 20 -6.7 81 81 WNW 15 24 29.82 1010 10 16.0934 0 0
4:15 am 04:15 Clear 26 -3.3 20 -6.8 77 77 W 14 22 29.83 1010 10 16.0934 0 0
4:35 am 04:35 Clear 26 -3.6 19 -7.1 77 77 W 15 24 29.83 1010 10 16.0934 0 0
4:55 am 04:55 Clear 25 -3.7 19 -7 78 78 W 15 24 29.84 1010 10 16.0934 0 0
5:15 am 05:15 Clear 24 -4.5 19 -7 83 83 W 16 26 29.86 1011 10 16.0934 0 0
5:35 am 05:35 Clear 25 -4.1 20 -6.7 82 82 W 18 30 29.85 1011 10 16.0934 0 0
5:55 am 05:55 Clear 24 -4.4 20 -6.8 84 84 W 16 26 29.87 1011 10 16.0934 0 0
6:15 am 06:15 Clear 24 -4.5 20 -6.7 85 85 W 16 26 29.88 1012 10 16.0934 0 0
6:35 am 06:35 Clear 24 -4.5 20 -6.8 84 84 W 16 26 29.89 1012 10 16.0934 0 0
6:55 am 06:55 Clear 24 -4.5 20 -6.8 84 84 W 20 31 29.9 1012 10 16.0934 0 0
7:15 am 07:15 Sunny 24 -4.7 20 -6.7 86 86 W 21 33 29.91 1013 10 16.0934 0 0
7:35 am 07:35 Sunny 24 -4.2 20 -6.6 84 84 W 18 30 29.91 1013 10 16.0934 0 0
7:55 am 07:55 Sunny 25 -4 20 -6.6 82 82 W 18 30 29.92 1013 10 16.0934 0 0
8:15 am 08:15 Sunny 25 -3.7 21 -6.3 82 82 W 15 24 29.93 1014 10 16.0934 0 0
8:35 am 08:35 Sunny 26 -3.1 21 -5.9 81 81 W 16 26 29.93 1014 10 16.0934 0 0
8:55 am 08:55 Sunny 27 -2.7 22 -5.6 81 81 W 18 30 29.94 1014 10 16.0934 0 0
9:15 am 09:15 Sunny 28 -2 23 -5.2 79 79 W 18 30 29.94 1014 10 16.0934 0 0
9:35 am 09:35 Sunny 30 -1.2 23 -4.8 77 77 W 16 26 29.95 1014 10 16.0934 0 0
9:55 am 09:55 Sunny 31 -0.8 24 -4.7 75 75 W 17 28 29.94 1014 10 16.0934 0 0
10:15 am 10:15 Sunny 31 -0.3 24 -4.5 74 74 WNW 14 22 29.95 1014 10 16.0934 0 0
10:35 am 10:35 Partly Cloudy 33 0.5 24 -4.5 69 69 WNW 17 28 29.95 1014 10 16.0934 0 0
10:55 am 10:55 Partly Cloudy 33 0.6 24 -4.2 71 71 W 17 28 29.95 1014 10 16.0934 0 0
11:15 am 11:15 Mostly Cloudy 34 0.9 25 -4.1 70 70 WNW 15 24 29.96 1014 10 16.0934 0 0
11:35 am 11:35 Partly Cloudy 34 1.3 23 -4.9 64 64 WNW 20 31 29.97 1015 10 16.0934 0 0
11:55 am 11:55 Mostly Cloudy 35 1.4 24 -4.7 64 64 WNW 20 31 29.97 1015 10 16.0934 0 0
12:15 pm 12:15 Mostly Cloudy 35 1.5 24 -4.4 65 65 WNW 20 31 29.97 1015 10 16.0934 0 0
12:35 pm 12:35 Mostly Cloudy 35 1.9 24 -4.2 64 64 WNW 20 31 29.98 1015 10 16.0934 0 0
12:55 pm 12:55 Partly Cloudy 36 2 24 -4.5 62 62 WNW 21 33 29.98 1015 10 16.0934 0 0
1:15 pm 13:15 Partly Cloudy 36 2.3 25 -4 63 63 WNW 17 28 29.97 1015 10 16.0934 0 0
1:35 pm 13:35 Mostly Cloudy 36 2.3 24 -4.5 61 61 WNW 21 33 29.98 1015 10 16.0934 0 0
1:55 pm 13:55 Mostly Cloudy 37 2.6 25 -4.1 62 62 NW 15 24 29.98 1015 10 16.0934 0 0
2:15 pm 14:15 Partly Cloudy 38 3.1 24 -4.6 57 57 WNW 17 28 29.98 1015 10 16.0934 0 0
2:35 pm 14:35 Mostly Cloudy 38 3.5 26 -3.4 61 61 NW 15 24 29.98 1015 10 16.0934 0 0
2:55 pm 14:55 Cloudy 39 3.8 26 -3.6 59 59 NW 13 20 29.98 1015 10 16.0934 0 0
3:15 pm 15:15 Mostly Cloudy 39 4 26 -3.5 58 58 WNW 13 20 29.98 1015 10 16.0934 0 0
3:35 pm 15:35 Partly Cloudy 40 4.4 27 -3 59 59 WNW 13 20 29.97 1015 10 16.0934 0 0
3:55 pm 15:55 Partly Cloudy 39 4.1 26 -3.2 59 59 NW 10 17 29.98 1015 10 16.0934 0 0
4:15 pm 16:15 Partly Cloudy 41 4.8 27 -2.6 59 59 WNW 12 19 29.97 1015 10 16.0934 0 0
4:35 pm 16:35 Partly Cloudy 41 4.9 26 -3.1 57 57 NW 12 19 29.97 1015 10 16.0934 0 0
4:55 pm 16:55 Partly Cloudy 41 4.9 27 -2.6 59 59 NW 15 24 29.98 1015 10 16.0934 0 0
5:15 pm 17:15 Partly Cloudy 41 4.8 26 -3.3 56 56 WNW 10 17 29.98 1015 10 16.0934 0 0
5:35 pm 17:35 Mostly Cloudy 41 5 27 -2.9 57 57 NW 10 17 29.98 1015 10 16.0934 0 0
5:55 pm 17:55 Partly Cloudy 42 5.6 28 -2.4 57 57 WNW 8 13 29.98 1015 10 16.0934 0 0
6:15 pm 18:15 Partly Cloudy 41 5 25 -3.8 53 53 WNW 7 11 30 1016 10 16.0934 0 0
6:35 pm 18:35 Partly Cloudy 41 5.2 25 -3.9 52 52 WNW 12 19 30.01 1016 10 16.0934 0 0
6:55 pm 18:55 Partly Cloudy 41 4.9 25 -3.9 53 53 WNW 7 11 30.01 1016 10 16.0934 0 0
7:15 pm 19:15 Sunny 40 4.6 26 -3.6 56 56 WNW 8 13 30.02 1017 10 16.0934 0 0
7:35 pm 19:35 Sunny 40 4.5 25 -3.9 55 55 NW 5 7 30.02 1017 10 16.0934 0 0
7:55 pm 19:55 Sunny 38 3.6 26 -3.1 62 62 WNW 3 6 30.04 1017 10 16.0934 0 0
8:15 pm 20:15 Clear 37 2.5 28 -2.5 70 70 Calm 30.05 1018 10 16.0934 0 0
8:35 pm 20:35 Clear 35 1.8 28 -2.1 76 76 Calm 30.07 1018 10 16.0934 0 0
8:55 pm 20:55 Clear 35 1.5 28 -2.1 77 77 Calm 30.08 1019 10 16.0934 0 0
9:15 pm 21:15 Clear 35 1.5 28 -2 78 78 Calm 30.09 1019 10 16.0934 0 0
9:35 pm 21:35 Clear 34 1 29 -1.8 82 82 Calm 30.11 1019 10 16.0934 0 0
9:55 pm 21:55 Clear 32 0.1 28 -2 86 86 Calm 30.13 1020 10 16.0934 0 0
10:15 pm 22:15 Clear 31 -0.7 29 -1.9 92 92 N 3 6 30.14 1021 10 16.0934 0 0
10:35 pm 22:35 Clear 32 0 27 -2.7 82 82 NNW 3 6 30.15 1021 10 16.0934 0 0
10:55 pm 22:55 Clear 32 0 27 -2.9 81 81 NNW 6 9 30.16 1021 10 16.0934 0 0
11:15 pm 23:15 Clear 32 0 26 -3.4 78 78 NNW 5 7 30.16 1021 10 16.0934 0 0
11:35 pm 23:35 Clear 31 -0.5 26 -3.3 82 82 NNW 5 7 30.17 1022 10 16.0934 0 0
11:55 pm 23:55 Clear 30 -1 26 -3.5 83 83 Calm 30.17 1022 10 16.0934 0 0

Powered by AerisWeather